Date,TemperatureHighF,TemperatureAvgF,TemperatureLowF,DewpointHighF,DewpointAvgF,DewpointLowF,HumidityHigh,HumidityAvg,HumidityLow,PressureMaxIn,PressureMinIn,WindSpeedMaxMPH,WindSpeedAvgMPH,GustSpeedMaxMPH,PrecipitationSumIn
2013-1-1,35,26,19,20,12,8,64,54,41,0.00,40.00,22,13,30,0.00
2013-1-2,37,27,14,10,7,1,62,44,30,0.00,40.00,17,9,23,0.00
2013-1-3,36,23,14,7,4,1,62,43,29,0.00,40.00,24,18,35,0.00
2013-1-4,43,32,24,10,6,2,43,33,25,0.00,40.00,23,14,28,0.00
2013-1-5,43,28,18,15,10,5,62,46,29,0.00,40.00,17,10,24,0.00
2013-1-6,41,31,17,13,10,7,72,42,28,0.00,40.00,22,9,30,0.00
2013-1-7,44,34,25,16,14,9,60,45,33,0.00,40.00,12,6,19,0.00
2013-1-8,48,40,31,19,14,9,49,35,22,0.00,40.00,25,10,44,0.00
2013-1-9,58,43,29,22,18,15,59,38,21,0.00,40.00,11,5,17,0.00
2013-1-10,52,33,22,26,20,10,74,58,29,0.00,40.00,23,8,32,0.00
2013-1-11,20,12,10,10,6,3,84,77,63,0.00,40.00,14,2,21,0.00
2013-1-12,18,10,2,7,4,-2,84,76,56,0.00,40.00,15,2,22,0.00
2013-1-13,19,12,6,5,2,0,81,66,50,0.00,40.00,17,6,23,0.00
2013-1-14,19,14,8,3,1,-1,65,56,45,0.00,40.00,22,16,32,0.00
2013-1-15,30,23,18,15,11,4,70,60,53,0.00,40.00,27,19,37,0.00
2013-1-16,41,34,27,18,15,12,53,45,35,0.00,40.00,20,12,27,0.00
2013-1-17,43,33,25,18,14,12,56,46,37,0.00,40.00,24,16,33,0.00
2013-1-18,54,40,33,19,16,13,42,36,23,0.00,40.00,19,11,30,0.00
2013-1-19,41,34,23,23,18,11,87,53,35,0.00,40.00,11,4,17,0.00
2013-1-20,33,24,16,22,13,8,83,63,47,0.00,40.00,13,2,22,0.00
2013-1-21,30,20,13,14,10,6,80,66,49,0.00,40.00,6,1,19,0.00
2013-1-22,47,30,13,15,12,9,87,52,25,0.00,40.00,17,8,23,0.00
2013-1-23,31,23,17,15,12,10,75,64,48,0.00,40.00,10,1,17,0.00
2013-1-24,54,36,20,22,17,13,76,48,27,0.00,40.00,21,4,35,0.00
2013-1-25,52,36,23,24,20,17,81,56,32,0.00,40.00,13,5,17,0.00
2013-1-26,59,44,32,24,22,21,66,44,26,0.00,40.00,12,4,17,0.00
2013-1-27,35,32,30,32,28,22,90,84,66,0.00,40.00,5,0,10,0.00
2013-1-28,40,31,24,28,18,2,89,62,23,0.00,40.00,19,5,28,0.00
2013-1-29,29,20,8,16,7,-3,65,55,42,0.00,40.00,19,6,28,0.00
2013-1-30,32,23,9,27,14,-1,88,70,49,0.00,40.00,19,6,30,0.00
2013-1-31,30,18,4,20,8,-3,74,64,56,0.00,40.00,19,4,28,0.00
2013-2-1,46,38,29,24,20,15,67,50,30,0.00,40.00,19,9,29,0.00
2013-2-2,40,31,25,19,16,14,73,56,37,0.00,40.00,11,6,20,0.00
2013-2-4,52,45,33,21,19,17,53,36,24,0.00,40.00,26,12,39,0.00
2013-2-5,52,41,32,26,21,19,61,46,33,0.00,40.00,16,6,22,0.00
2013-2-6,50,40,30,23,16,11,67,40,23,0.00,40.00,17,6,26,0.00
2013-2-7,45,35,25,20,18,13,80,51,30,0.00,40.00,6,1,9,0.00
2013-2-8,46,34,26,21,18,15,76,55,29,0.00,40.00,3,0,7,0.00
2013-2-9,43,32,23,24,19,14,87,63,32,0.00,40.00,10,2,14,0.00
2013-2-10,33,27,16,27,17,8,89,69,41,0.00,40.00,21,5,31,0.00
2013-2-11,35,23,11,13,8,5,85,56,35,0.00,40.00,23,15,31,0.00
2013-2-12,44,32,23,13,8,4,47,36,28,0.00,40.00,20,14,31,0.00
2013-2-13,50,36,30,31,18,7,84,48,26,0.00,40.00,24,11,45,0.00
2013-2-14,35,30,27,28,17,10,88,59,34,0.00,40.00,16,4,21,0.00
2013-2-15,45,33,26,24,20,17,88,62,34,0.00,40.00,19,9,26,0.00
2013-2-16,53,40,31,19,17,15,56,41,26,0.00,40.00,21,14,30,0.00
2013-2-17,45,38,32,25,19,13,63,46,28,0.00,40.00,23,11,38,0.00
2013-2-18,38,30,23,26,17,10,87,58,37,0.00,40.00,12,4,18,0.00
2013-2-19,32,22,15,16,13,10,86,69,43,0.00,40.00,8,3,10,0.00
2013-2-20,32,25,18,17,14,10,86,65,43,0.00,40.00,12,5,16,0.00
2013-2-21,41,30,22,21,18,13,86,64,38,0.00,40.00,15,4,21,0.00
2013-2-22,44,34,26,17,13,7,66,44,22,0.00,40.00,18,11,27,0.00
2013-2-23,41,34,31,32,20,10,88,58,33,0.00,40.00,18,8,27,0.00
2013-2-24,45,34,25,22,13,8,68,44,27,0.00,40.00,14,7,22,0.00
2013-2-25,49,37,27,15,12,8,55,37,21,0.00,40.00,20,10,37,0.00
2013-2-26,43,37,29,16,12,9,53,37,25,0.00,40.00,20,10,33,0.00
2013-2-27,46,34,24,19,13,7,70,45,22,0.00,40.00,13,9,22,0.00
2013-2-28,49,38,30,17,13,10,45,35,24,0.00,40.00,22,10,30,0.00
2013-3-1,61,45,30,26,20,14,56,38,25,0.00,40.00,29,13,45,0.00
2013-3-2,63,48,37,27,24,20,53,41,25,0.00,40.00,23,11,34,0.00
2013-3-3,55,39,29,30,24,7,90,57,37,0.00,40.00,34,8,51,0.00
2013-3-4,31,25,15,10,6,3,61,45,32,0.00,40.00,34,15,52,0.00
2013-3-5,32,20,9,18,9,3,83,66,43,0.00,40.00,8,4,11,0.00
2013-3-6,36,26,16,23,18,12,86,70,48,0.00,40.00,9,4,12,0.00
2013-3-7,57,41,29,27,19,5,80,48,13,0.00,40.00,14,7,26,0.00
2013-3-8,42,34,30,27,24,21,74,66,47,0.00,40.00,10,5,17,0.00
2013-3-9,48,40,26,11,9,7,54,28,20,0.00,40.00,24,12,35,0.00
2013-3-10,60,40,21,18,13,8,78,42,15,0.00,40.00,18,8,29,0.00
2013-3-11,49,40,32,21,16,8,47,38,19,0.00,40.00,23,12,34,0.00
2013-3-12,50,36,24,24,17,11,84,52,23,0.00,40.00,14,5,19,0.00
2013-3-13,69,51,32,25,20,18,60,34,17,0.00,40.00,26,13,40,0.00
2013-3-14,69,54,37,30,25,20,62,36,19,0.00,40.00,24,7,34,0.00
2013-3-15,65,53,38,29,24,20,57,34,18,0.00,40.00,29,14,42,0.00
2013-3-16,51,37,27,26,23,21,85,60,32,0.00,40.00,16,7,21,0.00
2013-3-17,42,34,25,29,16,3,84,52,19,0.00,40.00,33,13,52,0.00
2013-3-18,44,30,15,14,8,3,72,42,18,0.00,40.00,26,9,47,0.00
2013-3-19,39,31,25,22,15,11,87,55,34,0.00,40.00,17,7,22,0.00
2013-3-20,59,36,18,17,15,13,81,47,19,0.00,40.00,13,5,20,0.00
2013-3-21,48,41,34,32,15,2,82,39,18,0.00,40.00,21,10,34,0.00
2013-3-22,36,28,21,26,13,3,88,56,26,0.00,40.00,16,9,24,0.00
2013-3-23,34,25,17,14,5,-3,74,46,20,0.00,40.00,18,8,23,0.00
2013-3-24,34,23,9,11,6,1,83,51,24,0.00,40.00,14,5,24,0.00
2013-3-25,49,30,10,11,6,1,83,44,16,0.00,40.00,16,4,20,0.00
2013-3-26,54,39,23,16,12,2,56,34,20,0.00,40.00,15,5,18,0.00
2013-3-27,64,44,23,22,16,9,68,36,17,0.00,40.00,12,5,17,0.00
2013-3-28,67,50,32,27,22,17,64,37,20,0.00,40.00,14,6,17,0.00
2013-3-29,66,50,40,39,28,20,74,44,27,0.00,40.00,17,9,33,0.00
2013-3-30,60,51,42,39,25,-100,77,41,20,0.00,40.00,23,10,39,0.00
2013-3-31,59,45,32,27,21,14,63,40,25,0.00,40.00,24,11,34,0.00
2013-4-1,59,43,23,25,20,15,85,46,23,0.00,40.00,14,7,21,0.00
2013-4-2,71,49,27,27,21,16,70,38,16,0.00,40.00,13,6,19,0.00
2013-4-3,67,54,44,30,26,20,48,33,24,0.00,40.00,22,10,29,0.00
2013-4-4,59,48,35,30,28,25,70,48,34,0.00,40.00,16,8,21,0.00
2013-4-5,62,53,43,42,33,26,65,47,33,0.00,40.00,19,10,30,0.00
2013-4-6,65,51,39,38,31,27,67,48,25,0.00,40.00,21,9,30,0.00
2013-4-7,64,49,37,42,36,29,88,62,30,0.00,40.00,20,6,34,0.00
2013-4-8,37,26,22,33,20,14,89,79,68,0.00,40.00,22,14,34,0.00
2013-4-9,31,26,19,14,10,6,68,50,37,0.00,40.00,9,5,13,0.00
2013-4-10,49,33,18,24,15,10,74,50,29,0.00,40.00,12,6,20,0.00
2013-4-11,56,46,37,31,24,18,64,42,27,0.00,40.00,29,14,48,0.00
2013-4-12,52,43,36,33,22,15,76,45,23,0.00,40.00,17,9,27,0.00
2013-4-13,54,40,37,35,26,14,86,59,36,0.00,40.00,24,8,42,0.00
2013-4-14,39,34,25,27,17,11,74,52,32,0.00,40.00,27,16,39,0.00
2013-4-15,33,28,22,19,16,13,81,61,43,0.00,40.00,12,6,19,0.00
2013-4-16,31,26,21,21,19,13,83,75,48,0.00,40.00,14,6,20,0.00
2013-4-17,36,29,20,23,19,15,87,65,46,0.00,40.00,16,5,20,0.00
2013-4-18,53,40,21,23,16,9,89,47,18,0.00,40.00,18,11,31,0.00
2013-4-19,58,48,38,41,24,16,85,40,26,0.00,40.00,16,8,29,0.00
2013-4-20,62,50,38,41,29,18,85,48,18,0.00,40.00,22,10,44,0.00
2013-4-21,49,34,28,32,27,24,92,76,38,0.00,40.00,19,12,27,0.00
2013-4-22,35,29,25,25,18,10,88,64,34,0.00,40.00,16,8,24,0.00
2013-4-23,50,36,22,25,14,5,70,44,16,0.00,40.00,24,12,33,0.00
2013-4-24,58,46,34,29,19,12,81,39,18,0.00,40.00,24,10,36,0.00
2013-4-25,68,55,41,23,18,14,40,25,13,0.00,40.00,26,10,38,0.00
2013-4-26,75,59,43,29,24,17,55,29,13,0.00,40.00,18,8,26,0.00
2013-4-27,77,63,49,31,25,21,43,26,13,0.00,40.00,29,13,41,0.00
2013-4-28,68,62,55,35,28,21,38,28,18,0.00,40.00,17,7,25,0.00
2013-4-29,68,54,46,36,32,28,56,44,23,0.00,40.00,26,11,45,0.00
2013-4-30,46,42,35,26,19,14,50,39,30,0.00,40.00,22,14,37,0.00
2013-5-1,52,39,28,21,17,13,68,45,23,0.00,40.00,13,5,20,0.00
2013-5-2,66,50,33,27,20,14,63,35,17,0.00,40.00,17,10,27,0.00
2013-5-3,68,55,46,42,26,17,80,34,22,0.00,40.00,22,10,26,0.00
2013-5-4,61,51,43,42,37,28,81,61,33,0.00,40.00,16,5,21,0.00
2013-5-5,70,54,33,34,27,21,86,42,20,0.00,40.00,12,5,21,0.00
2013-5-6,75,56,37,31,27,20,59,35,18,0.00,40.00,12,6,17,0.00
2013-5-7,82,63,45,35,30,25,58,33,16,0.00,40.00,17,8,26,0.00
2013-5-8,72,61,46,38,35,25,58,38,28,0.00,40.00,13,7,20,0.00
2013-5-9,75,60,42,44,36,33,77,44,23,0.00,40.00,13,5,20,0.00
2013-5-10,71,57,48,42,32,-100,71,45,24,0.00,40.00,21,11,28,0.00
2013-5-11,80,60,37,37,28,-100,57,32,20,0.00,40.00,14,5,17,0.00
2013-5-12,90,74,58,42,37,34,42,28,15,0.00,40.00,21,9,34,0.00
2013-5-13,93,77,62,47,39,33,42,28,16,0.00,40.00,20,8,32,0.00
2013-5-14,83,69,53,45,36,26,67,33,19,0.00,40.00,18,8,32,0.00
2013-5-15,76,64,45,36,30,19,40,27,23,0.00,40.00,13,7,21,0.00
2013-5-16,70,56,53,52,29,-100,85,61,30,0.00,40.00,17,6,27,0.00
2013-5-17,61,56,51,54,47,-100,87,81,57,0.00,40.00,7,4,12,0.00
2013-5-18,59,55,51,52,49,45,87,80,64,0.00,40.00,14,4,19,0.00
2013-5-19,55,53,52,50,48,46,86,82,76,0.00,40.00,20,9,31,0.00
2013-5-20,65,59,51,44,33,21,75,41,19,0.00,40.00,23,13,31,0.00
2013-5-21,69,56,44,41,34,23,83,50,20,0.00,40.00,23,12,30,0.00
2013-5-22,68,55,46,41,38,36,81,56,35,0.00,40.00,23,14,36,0.00
2013-5-23,71,61,54,53,42,37,81,51,33,0.00,40.00,24,14,35,0.00
2013-5-24,72,61,52,50,34,22,82,43,16,0.00,40.00,17,7,24,0.00
2013-5-25,78,61,43,38,34,30,72,39,20,0.00,40.00,16,6,21,0.00
2013-5-26,79,62,47,53,44,32,79,53,30,0.00,40.00,12,5,31,0.00
2013-5-27,66,58,50,50,43,36,87,60,35,0.00,40.00,10,-13,37,0.00
2013-5-28,72,59,47,46,41,35,87,57,25,0.00,40.00,13,4,19,0.00
2013-5-29,61,54,53,50,48,43,87,81,51,0.00,40.00,11,5,17,0.00
2013-5-30,55,52,51,49,44,37,86,74,50,0.00,40.00,22,9,33,0.00
2013-5-31,56,52,49,42,37,32,74,59,43,0.00,40.00,26,14,40,0.00
2013-6-1,71,60,48,42,37,31,75,45,24,0.00,40.00,9,5,14,0.00
2013-6-2,76,64,53,47,41,36,67,45,26,0.00,40.00,16,7,22,0.00
2013-6-3,62,54,48,50,38,30,83,57,30,0.00,40.00,22,14,46,0.00
2013-6-4,55,48,41,39,34,31,80,58,44,0.00,40.00,12,6,20,0.00
2013-6-5,70,52,37,41,34,26,88,56,19,0.00,40.00,10,3,14,0.00
2013-6-6,79,64,46,47,40,33,79,44,23,0.00,40.00,16,6,20,0.00
2013-6-7,86,66,52,48,44,34,85,52,17,0.00,40.00,14,5,22,0.00
2013-6-8,72,70,69,42,38,37,34,32,31,0.00,40.00,12,9,19,0.00
2013-6-9,84,79,71,45,42,38,37,28,20,0.00,40.00,11,7,16,0.00
2013-6-10,80,67,52,50,44,39,74,44,24,0.00,40.00,12,6,20,0.00
2013-6-11,79,65,57,56,52,46,86,64,42,0.00,40.00,18,7,31,0.00
2013-6-12,73,64,52,56,52,48,87,68,47,0.00,40.00,21,6,37,0.00
2013-6-13,79,69,54,54,50,45,81,53,30,0.00,40.00,23,9,38,0.00
2013-6-14,68,60,51,46,35,25,77,42,20,0.00,40.00,22,10,34,0.00
2013-6-15,79,64,46,40,33,26,76,37,15,0.00,40.00,11,5,15,0.00
2013-6-16,78,66,49,45,40,35,79,42,24,0.00,40.00,12,7,19,0.00
2013-6-17,81,69,53,48,45,41,76,45,28,0.00,40.00,12,7,19,0.00
2013-6-18,89,74,57,54,48,42,72,43,23,0.00,40.00,12,5,17,0.00
2013-6-19,88,72,56,52,47,34,71,44,28,0.00,40.00,26,8,41,0.00
2013-6-20,76,64,52,36,29,25,34,27,19,0.00,40.00,13,7,23,0.00
2013-7-2,94,80,74,47,35,-100,34,24,10,0.00,40.00,0,0,0,0.00
2013-7-3,97,82,65,55,48,43,60,35,16,0.00,40.00,0,0,0,0.00
2013-7-4,92,78,66,63,57,46,71,49,27,0.00,40.00,0,0,0,0.00
2013-7-5,82,72,60,59,52,46,84,52,29,0.00,40.00,16,3,22,0.00
2013-7-6,84,71,59,57,50,43,79,51,25,0.00,40.00,19,6,24,0.00
2013-7-7,86,71,57,55,50,41,86,51,26,0.00,40.00,14,5,30,0.00
2013-7-8,93,70,59,59,50,-100,83,55,23,0.00,40.00,12,4,19,0.00
2013-7-9,81,69,61,60,55,47,86,65,30,0.00,40.00,10,4,19,0.00